Location: Errabaliem
(16.8108°N, 80.4255°E)
Time: 05:49:09
(UTC+00:00)

Cosmos 724 - Pass Details

Date: 05 August 2024
Orbit: 862 x 932 km, 65.6° (Epoch: 10 September)

Event Time Altitude Azimuth Distance (km) Brightness Sun altitude
Rises 23:37:40 0° 200° (SSW) 3,481 7.0 -10.4°
Reaches altitude 10° 23:40:10 10° 200° (SSW) 2,532 6.3 -9.8°
Maximum altitude 23:46:02 85° 112° (ESE) 878 4.4 -8.5°
Drops below altitude 10° 23:51:50 10° 24° (NNE) 2,501 7.3 -7.2°
Sets 23:54:18 0° 24° (NNE) 3,435 8.1 -6.6°
